STARLINK-33877, 63933

Orbit data source: Space-Track

STARLINK-33877, 63933 is a payload satellite owned by SpaceX/Seattle (US) in LEO that was launched on Tue, 13 May 2025 UTC via an FALCON 9 launch vehicle from the Air Force Western Test Range (AFWTR). Payload-class satellites include a variety of spacecraft equipped with specific instruments for various scientific and technological missions. These include communications satellites like Starlink; space stations such as the ISS; scientific satellites like the Hubble; Earth observation satellites from companies like Planet Labs, Umbra, and HawkEye 360; GPS; miniature CubeSats for education and research; and military/defense satellites.

Loading next visibility...
Identifier
63933, 2025-098H
Orbit
LEO
Country
Flag of USUS
Related business
Manufacturer
SpaceX/Seattle
Mission
Operational Commercial Communications
Bus & Motor
STARLINK V2MO, Unknown motor
Mass
575 kg wet, ~530 kg dry
Launch date (UTC)
2025-05-13 (1 year ago)
Launch vehicle
FALCON 9
Launch site
Air Force Western Test Range (AFWTR)
Object type
Payload
Rocket body
Debris
Shape & HBR
Box + 2 Pan, 17.7 m
Radar Cross Section
36.964 m², Large (>1 m²)

Expand to show TLE details & history
Last TLE update: 17 hours ago

TLE from 17 hours ago
0 STARLINK-33877
1 63933U 25098H   26171.28624169  .00002765  00000-0  23941-3 0  9995
2 63933  70.0016  15.6346 0002845 265.4799  94.6035 14.98335536 61940
Epoch: 2026-06-20T06:52Z
TLE epoch observation values (Epoch: 2026-06-20T06:52:11.282Z)
Latitude
-0.00001°
Longitude
4.08454°
Altitude
574.622 km
Speed
7.574 km/s
True Right ascension
01h 02m 32s
True Declination
0° 00' 00"
Sunlit
Object was in daylight at epoch
Visualization orbit readout
Latitude
Unknown
Longitude
Unknown
Altitude
Unknown
Speed
Unknown
Apparent Right ascension
Unknown
Apparent Declination
Unknown
Sunlit
N/A
Visualization observer readout
Local Sidereal Time
10:20:23
Azimuth
Unknown
Elevation
Unknown
Doppler factor
Unknown
Orbital elements
Apogee altitude
571.964 km
Perigee altitude
568.01 km
Semi-major axis
6,948.124 km
Eccentricity
0.00028
Inclination
70.0016°
RAAN
15.6346°
Arg. of periapsis
265.4799°
True anomaly
94.636°
Mean anomaly
94.6035°
Eccentric anomaly
94.61975°
Mean motion
3.7475 °/min
Orbital period
96.06 mins
BSTAR
0.00023941
Loading maneuver chart data...
Computing Atmospheric mass density...
Loading historical data...
Loading historical data...
Loading historical data...
Loading historical data...
Loading historical data...
Loading historical data...
Loading historical data...

Documentation

Showing up to 5 results
|